Wind_Speed
29 30 31 32 31 30 30 31 31 30 29 27 25 24 23 21 19 17 16 15 14 13 12 12 12 12 13 13 13 12 12 12 12 11 11 10 10 10 9 8 7 6 5
25 27 29 30 30 30 30 30 30 31 31 29 28 27 25 24 22 21 19 18 17 15 14 14 14 13 14 14 14 13 13 13 12 12 12 11 11 10 10 8 7 6 5
21 24 26 27 28 29 30 30 30 30 32 32 30 29 29 28 26 24 23 21 19 18 17 16 15 14 15 15 15 14 14 14 13 13 13 12 11 11 10 9 8 7 6
18 20 22 24 26 27 29 30 31 31 31 33 32 30 30 30 29 27 25 24 22 20 19 18 17 16 15 16 16 15 15 14 14 14 13 13 12 11 11 10 8 7 6
15 17 19 21 23 25 26 27 29 30 32 33 33 33 32 31 31 30 28 27 26 23 22 21 19 17 17 17 16 16 16 16 15 15 14 13 13 12 11 11 9 9 8
12 14 16 18 21 23 24 25 27 28 30 33 34 33 32 31 31 32 30 29 28 26 25 23 22 20 19 18 18 18 17 17 17 16 15 15 14 13 12 12 11 10 9
10 12 14 15 17 19 22 24 26 27 29 30 33 34 33 32 32 33 33 31 30 29 28 27 25 24 22 21 20 20 19 19 18 18 17 16 15 15 14 13 12 12 11
7 9 11 12 15 17 19 22 24 27 28 29 31 33 34 35 35 35 35 35 34 32 31 30 28 27 26 25 24 23 22 21 20 20 19 18 17 16 16 15 14 13 12
7 7 8 9 12 15 17 19 22 24 27 29 30 33 34 35 36 37 36 36 36 36 34 33 33 31 30 28 27 26 25 24 23 22 21 20 19 19 18 17 16 15 14
8 7 7 8 9 11 14 17 20 22 24 27 29 31 34 34 35 35 36 36 37 37 36 35 35 35 34 32 31 30 28 27 26 25 24 23 22 21 20 19 18 17 16
10 9 7 7 8 9 11 14 16 19 22 25 27 30 32 34 35 36 37 37 37 38 38 38 37 38 37 36 34 33 32 31 29 28 27 26 25 24 23 22 21 20 19
13 11 10 8 7 8 9 11 14 17 20 23 26 28 30 32 35 36 37 38 38 38 39 39 39 39 40 40 38 36 35 34 34 32 31 29 28 27 25 25 24 23 21
15 14 12 10 9 8 9 11 13 15 18 21 24 27 29 31 34 36 37 39 39 40 39 39 39 40 41 41 40 38 37 37 37 36 34 33 31 30 29 28 27 26 25
17 15 14 13 11 10 10 11 12 14 16 19 22 25 28 30 33 36 37 39 40 40 41 41 41 40 42 43 43 42 40 39 39 39 38 36 35 34 32 31 30 29 28
18 17 16 15 13 12 12 12 13 14 16 18 21 23 26 29 31 34 37 39 40 41 42 42 42 43 44 44 44 43 42 40 39 40 40 39 38 37 36 35 33 32 31
19 18 18 17 15 14 14 14 13 14 15 17 19 22 24 27 30 33 35 37 40 41 42 43 44 44 45 45 46 45 44 42 41 41 41 40 40 39 38 37 36 35 34
20 19 19 18 18 17 16 15 14 14 15 16 18 20 23 25 28 31 33 36 38 40 41 42 44 45 45 46 46 46 47 45 44 43 42 41 41 40 40 39 39 38 37
21 20 19 19 19 18 18 17 15 15 15 15 16 18 20 23 26 29 31 33 36 39 41 42 44 46 46 46 47 47 47 47 46 45 45 43 42 41 41 40 40 40 39
21 21 20 20 20 20 19 18 17 16 16 15 15 16 18 20 23 25 28 31 33 36 39 41 43 45 46 47 47 48 48 48 48 47 47 46 44 43 42 41 40 40 40
21 21 21 21 21 21 20 20 19 18 17 16 14 14 15 16 18 21 24 27 30 33 36 38 41 43 45 46 47 47 47 47 48 48 47 46 46 45 44 43 42 41 41
21 21 21 22 21 21 21 21 20 19 18 16 15 14 13 13 14 16 19 22 25 29 32 35 38 41 43 44 45 46 47 48 48 48 48 47 47 46 45 44 43 42 41
20 21 21 21 22 21 21 21 21 20 19 17 16 14 12 10 11 13 15 17 20 24 27 30 34 37 41 43 44 45 46 47 47 47 48 48 48 48 46 44 43 42 41
20 21 21 21 21 21 21 21 21 20 20 18 16 14 12 11 10 10 12 14 16 18 22 25 29 32 36 39 41 42 44 45 46 46 47 48 49 48 47 45 44 43 42
21 21 20 20 20 20 20 21 21 20 19 19 17 15 13 12 11 10 11 11 13 15 18 21 25 28 31 34 37 39 41 43 45 45 45 45 46 47 46 46 46 44 43
21 21 20 20 20 20 20 20 20 20 19 18 17 16 14 13 12 11 11 11 12 13 15 17 21 24 28 30 33 36 38 40 42 43 44 44 45 46 46 46 45 45 45
21 21 20 20 20 20 19 19 19 19 19 18 18 17 16 14 14 13 12 12 11 11 12 15 17 20 24 27 30 33 35 38 40 41 43 44 44 45 46 45 45 45 45
Wind_Direction
249 248 247 247 245 243 240 238 238 234 233 231 229 228 226 223 225 225 222 220 217 215 212 211 208 203 199 196 196 197 196 193 191 189 188 188 187 188 188 187 188 190 190
249 247 245 244 243 243 242 241 237 235 233 232 231 229 227 225 225 224 223 221 219 218 215 212 211 208 203 200 201 203 202 200 197 195 194 192 191 192 191 191 196 200 201
249 246 244 243 242 242 241 240 238 236 234 231 233 232 229 226 225 225 224 223 222 219 216 214 212 211 209 207 206 206 205 204 202 201 200 199 198 198 198 201 204 207 210
251 247 245 242 239 239 238 238 238 236 234 231 231 233 232 227 225 225 223 222 221 219 217 215 214 214 212 211 210 209 208 208 208 206 205 205 204 204 205 208 210 213 215
254 250 245 241 239 237 237 237 237 235 232 230 230 232 232 230 227 225 222 222 222 220 218 217 216 216 215 214 214 213 211 211 211 210 210 209 209 209 212 213 215 220 223
259 253 249 245 241 238 237 235 235 235 233 233 231 231 233 232 229 226 224 223 222 221 219 218 219 219 219 218 218 217 215 214 215 215 215 216 218 219 220 219 221 225 230
270 260 254 249 243 238 236 234 234 235 234 234 233 232 230 230 229 227 224 223 222 222 221 220 221 221 221 221 221 220 219 218 218 219 220 222 224 225 226 227 228 230 235
287 269 260 252 246 242 239 237 236 235 236 235 232 231 231 230 230 229 227 225 224 222 222 221 222 223 223 223 223 223 222 222 222 222 223 226 228 229 230 232 234 237 240
324 299 278 263 253 247 243 241 238 237 237 238 235 233 231 230 230 231 228 225 225 223 225 225 225 224 224 225 225 225 224 225 225 226 226 228 230 232 234 236 238 241 244
350 330 302 284 270 258 250 245 243 240 238 239 237 235 232 231 230 230 229 227 226 225 225 225 227 226 225 225 226 227 227 227 227 229 230 230 232 234 236 239 241 244 246
1 351 335 310 290 271 259 252 248 243 240 239 238 237 234 233 232 231 230 230 230 229 227 226 226 226 226 227 228 229 230 229 229 230 231 232 234 236 239 241 243 244 246
7 2 355 341 318 293 273 261 254 249 245 242 239 237 236 234 233 230 230 230 230 229 228 228 227 227 228 227 228 229 231 232 232 232 233 234 235 238 240 242 244 245 247
9 4 358 352 338 319 296 278 266 258 253 248 244 241 238 236 235 233 232 232 232 232 231 229 229 228 227 227 228 229 232 234 234 234 235 236 236 238 241 243 245 246 249
9 5 360 353 344 331 315 297 282 270 261 254 249 246 243 240 237 235 233 233 234 233 233 232 232 230 228 228 230 231 232 235 235 235 235 237 238 239 241 243 244 247 249
6 4 1 356 348 337 325 310 295 283 274 263 256 252 248 244 241 238 235 234 233 234 233 233 233 232 230 230 231 231 232 233 234 235 236 238 240 241 242 243 244 247 249
4 2 1 358 352 344 335 324 310 296 285 275 264 257 253 249 245 241 239 236 235 234 234 234 233 234 233 231 231 232 233 234 234 235 237 239 239 240 241 243 245 247 249
2 0 359 357 353 348 342 336 326 312 299 287 275 266 259 254 250 246 244 241 238 236 235 235 235 236 236 235 234 233 233 235 235 235 236 239 240 241 242 244 246 247 249
1 0 358 356 355 352 348 344 336 328 316 303 288 276 267 260 255 250 247 245 242 238 237 237 236 237 237 236 236 235 234 234 235 236 237 239 241 242 243 244 246 247 249
0 0 360 358 357 355 353 349 344 338 330 319 304 289 276 267 260 255 251 248 245 242 240 238 238 238 238 237 237 236 236 236 236 236 237 239 240 241 242 244 245 247 248
359 360 0 360 359 358 356 354 350 346 340 333 321 307 291 277 267 261 255 251 247 245 243 240 239 238 238 237 237 237 237 236 236 236 237 238 239 241 242 244 245 247 248
356 358 359 359 359 358 358 358 357 354 349 344 336 326 311 290 278 270 263 258 253 248 245 243 241 240 239 238 237 236 236 236 235 236 236 237 238 239 241 242 244 246 247
353 354 355 356 357 357 358 358 0 359 356 352 348 341 332 314 296 283 272 266 261 253 248 245 243 241 240 239 238 237 236 236 236 237 237 237 238 239 240 241 242 244 246
348 349 351 353 354 355 355 356 359 1 1 359 357 352 346 335 317 301 287 277 269 259 252 248 245 242 241 240 239 238 237 236 235 235 236 237 238 238 240 240 241 242 243
342 343 345 347 349 351 352 354 355 357 359 1 1 360 355 345 331 318 307 294 282 268 258 252 246 242 240 239 239 238 238 237 236 236 237 238 238 239 240 241 241 242 242
336 337 338 340 343 345 347 349 351 352 353 355 357 356 353 348 340 328 318 309 296 280 267 258 250 244 242 242 241 240 239 239 238 238 239 239 239 240 240 240 241 242 243
329 330 332 334 336 338 341 343 345 346 348 349 350 351 349 346 344 337 328 319 309 295 280 267 257 249 247 245 243 241 241 240 239 239 240 240 239 239 239 240 240 240 241
Height
5813 5815 5817 5820 5823 5826 5830 5833 5837 5840 5843 5847 5850 5853 5855 5858 5860 5862 5863 5865 5867 5868 5870 5871 5873 5874 5876 5878 5880 5881 5883 5884 5886 5887 5889 5890 5891 5893 5894 5895 5896 5897 5898
5806 5808 5810 5813 5816 5820 5823 5827 5830 5834 5838 5841 5844 5848 5851 5854 5856 5858 5860 5862 5864 5866 5868 5869 5871 5873 5875 5876 5878 5880 5882 5884 5885 5887 5888 5889 5891 5892 5893 5895 5896 5896 5897
5801 5802 5804 5807 5810 5813 5817 5820 5823 5827 5831 5835 5838 5842 5845 5848 5851 5854 5857 5859 5861 5863 5865 5867 5869 5871 5873 5875 5877 5879 5881 5883 5884 5886 5887 5889 5890 5892 5893 5894 5895 5896 5896
5796 5797 5799 5801 5804 5807 5810 5813 5817 5821 5825 5829 5832 5835 5839 5843 5846 5849 5852 5855 5858 5860 5863 5865 5867 5869 5871 5873 5875 5877 5879 5881 5883 5885 5886 5888 5889 5891 5892 5893 5894 5895 5896
5792 5793 5794 5796 5798 5801 5804 5807 5811 5814 5818 5822 5826 5829 5833 5836 5840 5843 5846 5850 5853 5856 5859 5862 5864 5866 5868 5871 5873 5875 5877 5879 5881 5883 5885 5887 5888 5890 5891 5892 5893 5894 5895
5788 5789 5790 5792 5793 5796 5798 5801 5805 5808 5811 5815 5819 5822 5826 5829 5833 5837 5841 5844 5848 5851 5855 5858 5860 5863 5866 5868 5870 5873 5875 5877 5879 5881 5883 5885 5887 5888 5889 5890 5892 5893 5894
5786 5786 5787 5788 5789 5791 5793 5796 5799 5802 5805 5808 5812 5816 5819 5823 5826 5831 5835 5839 5842 5846 5849 5853 5856 5859 5862 5865 5867 5870 5872 5875 5877 5879 5881 5883 5884 5886 5888 5889 5890 5891 5892
5783 5783 5783 5784 5785 5787 5789 5791 5793 5795 5798 5801 5805 5809 5812 5817 5820 5824 5828 5832 5836 5840 5843 5847 5851 5854 5857 5860 5863 5866 5869 5871 5873 5875 5877 5880 5882 5883 5885 5887 5888 5889 5890
5781 5781 5780 5781 5782 5783 5784 5786 5788 5790 5792 5795 5798 5802 5806 5809 5813 5817 5821 5825 5829 5833 5837 5840 5844 5848 5852 5855 5858 5861 5864 5866 5869 5872 5874 5876 5878 5880 5882 5884 5885 5886 5887
5780 5779 5778 5778 5778 5779 5780 5781 5783 5784 5787 5789 5792 5795 5799 5802 5806 5810 5814 5817 5822 5826 5830 5833 5837 5841 5845 5849 5852 5856 5859 5861 5864 5867 5869 5872 5874 5876 5878 5880 5882 5883 5884
5780 5778 5777 5776 5776 5776 5776 5777 5778 5779 5781 5783 5785 5788 5791 5795 5798 5803 5806 5810 5814 5818 5822 5826 5830 5834 5838 5842 5846 5849 5853 5856 5859 5862 5864 5867 5869 5871 5874 5876 5877 5879 5880
5779 5777 5776 5774 5773 5773 5773 5773 5773 5774 5775 5777 5779 5781 5784 5787 5790 5794 5799 5802 5806 5810 5814 5818 5822 5826 5830 5834 5838 5842 5846 5849 5852 5856 5858 5861 5864 5866 5869 5871 5873 5874 5876
5779 5777 5774 5773 5771 5770 5769 5769 5769 5769 5770 5771 5772 5774 5776 5779 5782 5786 5790 5793 5797 5801 5805 5810 5814 5818 5822 5826 5830 5834 5838 5841 5845 5849 5852 5855 5857 5860 5863 5865 5867 5869 5871
5779 5776 5774 5772 5769 5768 5766 5765 5765 5764 5764 5765 5766 5767 5768 5771 5773 5777 5781 5784 5788 5792 5797 5801 5805 5809 5813 5817 5822 5825 5829 5833 5836 5840 5844 5847 5850 5853 5856 5858 5861 5863 5865
5779 5776 5773 5770 5768 5766 5764 5762 5760 5760 5759 5759 5759 5760 5761 5763 5765 5768 5771 5775 5779 5783 5787 5791 5795 5799 5803 5808 5812 5816 5820 5824 5828 5831 5835 5839 5842 5845 5848 5851 5854 5856 5858
5779 5776 5772 5769 5766 5763 5761 5758 5756 5755 5754 5753 5753 5753 5753 5755 5756 5759 5761 5765 5769 5773 5777 5781 5784 5788 5793 5798 5803 5807 5811 5815 5819 5822 5826 5830 5833 5837 5840 5843 5846 5849 5851
5779 5775 5772 5768 5764 5761 5758 5755 5752 5750 5748 5747 5746 5746 5746 5747 5748 5750 5752 5755 5758 5762 5767 5770 5774 5777 5782 5787 5792 5797 5801 5805 5809 5813 5817 5821 5824 5828 5831 5834 5837 5840 5843
5779 5775 5771 5767 5763 5759 5755 5752 5748 5746 5743 5741 5739 5738 5738 5738 5739 5741 5743 5745 5748 5752 5756 5760 5763 5767 5771 5776 5781 5786 5790 5795 5799 5803 5807 5811 5815 5818 5822 5825 5828 5832 5834
5778 5774 5770 5766 5762 5758 5753 5749 5746 5742 5739 5736 5733 5732 5731 5731 5731 5732 5734 5736 5738 5741 5745 5749 5752 5755 5760 5764 5769 5774 5779 5784 5789 5793 5797 5801 5805 5809 5812 5816 5819 5822 5825
5778 5773 5769 5765 5761 5756 5752 5748 5743 5739 5736 5732 5729 5727 5725 5724 5724 5725 5726 5727 5729 5732 5735 5738 5741 5745 5749 5753 5758 5763 5768 5773 5778 5782 5786 5790 5794 5798 5802 5806 5809 5813 5816
5777 5773 5769 5764 5760 5755 5751 5746 5742 5738 5734 5730 5727 5723 5721 5719 5719 5719 5719 5720 5721 5723 5725 5728 5731 5734 5738 5742 5747 5751 5756 5761 5766 5771 5775 5780 5784 5788 5791 5795 5799 5803 5806
5776 5772 5768 5763 5759 5755 5750 5746 5741 5737 5733 5729 5725 5721 5719 5717 5716 5714 5714 5714 5714 5715 5717 5719 5722 5725 5728 5731 5736 5740 5745 5750 5756 5761 5764 5768 5772 5777 5781 5785 5789 5792 5795
5774 5770 5766 5762 5758 5754 5750 5745 5741 5737 5733 5728 5724 5721 5718 5715 5713 5712 5710 5709 5708 5708 5710 5711 5713 5716 5719 5722 5726 5731 5734 5739 5744 5748 5752 5757 5761 5766 5770 5774 5777 5781 5785
5772 5769 5765 5761 5757 5753 5749 5745 5741 5737 5733 5729 5725 5721 5718 5715 5712 5710 5708 5706 5705 5704 5704 5705 5706 5708 5710 5713 5717 5721 5724 5728 5733 5737 5741 5746 5750 5755 5759 5762 5767 5770 5774
5770 5766 5763 5759 5755 5752 5748 5744 5740 5736 5732 5729 5725 5721 5717 5714 5711 5709 5706 5704 5702 5700 5699 5699 5700 5701 5703 5706 5708 5711 5715 5719 5723 5727 5731 5736 5740 5743 5747 5752 5756 5759 5763
5767 5764 5760 5757 5753 5750 5746 5742 5739 5735 5732 5728 5724 5721 5717 5714 5710 5707 5704 5702 5699 5697 5696 5695 5695 5696 5697 5699 5701 5703 5706 5710 5714 5718 5721 5724 5728 5731 5736 5740 5744 5748 5751